Dewpoint
58 60 61 63 64 64 65 66 66 66 66 67 67 67 67 68 69 69 70 70 70 69 69 69 68 68 68 67 67 69 69 70 71 72 72 73 74 75 75 76 76 76 76 74 74 76 74 74 74 74 75 75 74 72 72 75 75 74 74 72 73 70 69 70 69 67 63 62 63 63 65 69 72 73 65 65 65 65 66 66 66 66 65 65 67
58 60 61 62 63 64 64 65 67 65 66 66 66 66 67 68 68 69 70 70 69 69 69 69 69 67 67 67 69 69 71 70 70 71 72 73 74 74 75 75 75 76 77 76 75 75 74 74 74 73 75 73 75 76 76 77 74 74 73 72 72 70 69 70 69 64 63 61 61 61 65 67 69 69 68 65 67 67 66 66 65 65 63 65 66
58 59 61 61 62 63 63 64 65 65 65 65 66 66 68 68 69 71 71 70 70 70 70 71 72 70 69 70 70 71 71 70 71 72 73 73 74 75 75 75 75 75 76 77 75 75 74 74 73 74 75 77 73 72 73 73 73 73 72 72 71 69 72 72 71 65 63 68 65 62 59 59 65 62 67 68 67 68 66 64 66 64 63 64 68
58 59 60 61 62 62 63 63 64 64 65 65 66 67 68 69 70 71 71 71 71 73 73 72 72 72 71 71 71 70 70 74 72 73 73 73 74 74 74 75 75 75 76 77 76 74 74 74 74 75 74 76 73 71 72 73 73 73 72 74 70 67 69 69 74 70 67 62 58 62 59 61 57 57 62 64 68 68 63 61 64 63 62 63 67
58 59 60 60 61 62 62 63 63 64 64 65 66 67 67 69 70 71 71 71 73 76 73 73 74 73 73 73 73 71 71 71 71 71 72 73 74 74 74 75 75 75 76 76 77 74 75 74 74 74 75 75 74 73 72 73 74 73 72 72 70 68 68 69 70 72 70 67 64 62 59 58 57 58 62 61 64 66 67 63 73 65 61 62 67
58 59 59 60 61 62 62 63 63 64 65 66 67 67 68 69 70 71 71 71 74 73 73 73 72 71 71 70 68 68 68 68 69 70 71 73 73 74 74 75 75 75 75 76 77 76 75 74 73 74 75 75 76 75 74 72 72 72 72 72 72 73 68 69 68 71 72 71 67 64 62 59 59 60 56 54 63 70 70 69 63 63 65 64 66
58 59 60 60 61 61 62 63 63 64 65 66 67 68 69 70 70 71 71 72 73 73 73 72 71 70 70 69 68 68 68 68 69 71 72 73 74 73 73 75 75 75 75 75 76 77 75 74 74 75 75 75 78 74 73 73 71 73 76 73 73 74 69 67 69 70 69 70 71 71 73 70 65 62 61 61 58 63 67 68 66 67 67 63 66
58 59 60 60 61 61 62 63 63 64 65 66 67 68 69 70 70 70 71 73 73 73 72 71 70 70 69 69 70 69 68 68 69 70 72 74 73 73 73 74 75 75 75 75 76 76 76 75 75 75 75 75 77 76 73 73 74 73 77 75 76 73 70 69 68 70 66 67 73 70 71 69 67 69 65 60 61 59 60 65 67 66 65 66 70
58 59 59 60 61 61 62 62 63 65 65 66 67 68 69 70 71 71 71 73 72 73 72 71 71 70 69 69 70 70 69 69 72 73 73 74 73 73 73 73 74 75 75 75 75 76 77 75 75 74 74 73 77 76 74 74 73 72 73 73 72 73 74 72 70 69 70 68 68 66 68 67 66 67 67 68 64 61 61 64 65 66 65 65 64
58 59 59 60 61 61 62 62 64 65 65 67 67 68 69 70 71 71 72 72 72 72 72 71 71 71 70 70 70 70 72 72 73 72 72 73 72 72 72 72 73 74 74 75 75 76 77 76 75 75 74 75 77 75 74 73 73 73 73 73 74 73 73 73 73 71 71 71 69 67 65 66 65 64 65 65 65 62 60 60 64 65 63 64 66
58 59 60 60 61 62 62 62 63 65 65 66 67 68 69 70 70 71 72 72 72 72 72 72 72 70 70 70 70 70 72 72 72 71 71 72 72 72 72 72 73 74 74 75 75 75 76 76 76 75 75 77 77 75 73 73 72 72 74 75 74 73 74 74 73 73 72 71 69 67 65 65 63 62 61 64 62 62 61 61 65 67 65 64 65
58 59 59 60 61 62 62 62 63 64 65 66 67 68 69 69 70 71 72 72 72 72 72 72 73 71 70 71 70 71 72 72 71 71 71 72 71 72 72 73 73 74 74 75 75 75 75 75 76 75 76 75 74 74 74 74 73 74 74 74 73 73 73 74 72 71 72 71 69 68 68 68 68 65 66 66 65 64 62 62 64 66 65 65 66
57 59 59 60 60 61 61 62 63 64 65 66 67 68 68 69 70 70 72 73 72 73 72 73 73 72 71 71 71 72 72 72 71 71 71 71 72 72 72 73 72 73 73 74 74 74 75 74 74 73 74 76 75 75 75 75 74 74 74 74 73 72 72 74 72 72 73 71 70 70 69 69 68 68 69 68 67 67 65 62 64 67 63 64 66
55 58 59 60 60 61 62 62 63 64 64 65 67 68 68 69 70 70 71 73 73 73 73 73 73 72 72 72 72 73 72 72 71 71 72 71 72 72 73 73 73 73 73 74 74 74 75 75 75 74 74 75 75 75 75 74 75 74 74 73 73 73 73 74 73 74 73 72 71 69 69 69 69 70 70 68 67 66 65 63 64 65 67 66 67
54 57 59 60 61 61 62 62 63 63 64 65 67 68 68 69 70 70 71 72 73 73 73 73 73 73 73 72 73 73 72 73 72 73 72 72 73 72 73 73 73 73 73 73 75 74 74 74 75 75 74 75 76 76 77 76 76 76 76 75 75 75 74 74 73 73 72 71 71 69 70 69 69 70 71 70 69 66 65 67 65 64 63 63 66
54 56 58 60 61 61 62 62 63 63 64 65 66 68 68 69 70 70 70 72 73 73 73 73 73 73 73 72 73 74 74 73 73 75 74 73 73 73 73 73 73 73 73 73 74 75 74 74 75 75 75 76 75 75 74 75 75 74 73 75 73 77 74 73 73 73 74 72 72 71 70 70 70 70 71 70 70 69 69 69 68 65 62 62 63
55 55 57 59 61 62 62 62 63 63 64 65 66 67 68 69 70 70 70 72 72 73 73 73 73 73 73 72 73 74 74 73 73 74 74 74 74 74 73 74 73 72 72 74 73 75 74 74 75 75 75 75 75 75 75 74 74 74 73 73 73 74 74 73 74 74 73 73 73 72 71 70 69 70 70 71 70 71 70 70 70 66 65 63 62
57 55 56 57 60 62 62 63 63 63 64 65 66 67 68 69 70 70 70 71 72 72 73 73 73 73 73 73 73 74 73 73 73 74 74 74 73 74 74 74 74 73 73 73 73 73 74 77 74 75 75 75 75 75 74 74 74 73 74 73 74 73 73 73 74 74 74 73 75 73 72 71 72 70 70 71 71 70 70 70 70 70 68 66 64
60 57 56 56 58 61 62 63 63 63 64 65 67 68 68 69 69 70 70 71 71 72 72 73 73 73 74 73 73 74 73 73 73 74 74 74 73 73 74 74 74 74 74 74 74 73 74 74 75 74 74 75 75 75 75 74 74 73 74 74 74 74 73 73 73 74 73 73 72 72 72 72 73 72 71 71 71 71 70 71 71 72 71 69 67
61 59 57 56 56 59 61 62 63 63 64 66 67 68 68 69 69 70 70 71 71 72 72 73 73 73 73 73 73 74 74 73 73 73 73 73 73 73 73 73 73 74 74 73 74 73 73 73 74 75 75 75 75 75 75 74 74 74 74 74 74 74 73 73 73 73 74 74 72 72 72 72 73 72 72 72 71 71 72 73 73 72 72 71 70
62 61 59 57 56 58 60 61 62 63 65 67 68 68 68 69 69 70 70 70 71 71 72 72 73 73 73 73 73 73 73 73 73 73 73 73 73 74 73 73 73 72 73 73 73 73 73 73 73 74 74 74 75 75 75 74 73 74 74 73 73 73 73 73 73 74 74 73 73 72 73 73 73 72 71 71 71 71 72 73 73 72 71 73 71
63 63 60 59 57 57 59 61 62 62 65 67 68 68 68 69 69 70 70 71 70 71 71 72 73 73 73 73 73 73 73 73 73 72 72 72 72 72 72 73 72 72 72 72 72 72 73 73 73 73 74 74 74 74 74 74 74 74 74 74 74 73 72 73 72 72 73 73 73 72 73 73 73 73 73 71 71 72 71 70 69 71 70 71 73
65 65 66 66 67 67 63 61 61 62 65 66 68 68 69 69 69 70 71 71 71 71 71 71 72 73 73 73 73 73 73 73 72 72 72 71 71 72 72 71 72 71 72 71 71 72 72 73 73 73 73 73 73 74 74 74 74 73 73 73 74 73 73 72 72 72 73 73 73 72 73 73 73 72 72 72 73 71 71 70 69 71 71 72 73
65 66 66 66 67 68 67 67 66 64 65 66 68 68 69 69 70 70 70 71 71 71 72 71 72 72 72 73 72 73 73 72 72 72 71 71 71 71 72 71 71 71 71 71 71 71 71 72 72 73 72 72 73 73 74 74 74 74 73 73 73 73 73 73 73 73 73 73 72 71 71 72 72 71 71 71 71 71 70 70 70 71 71 70 71
65 66 66 66 66 66 67 67 67 67 67 67 68 69 69 70 70 70 71 71 71 71 72 71 71 71 71 72 72 72 72 72 72 71 71 71 70 70 70 70 70 70 70 70 71 71 71 71 71 71 72 72 72 72 73 73 74 74 74 73 73 73 73 73 73 73 75 73 72 72 72 72 71 70 70 71 71 70 71 71 70 71 71 71 72
65 65 65 65 65 66 66 67 67 68 68 68 68 68 69 70 70 70 71 71 72 72 72 71 71 71 71 71 71 71 72 72 72 71 71 70 70 69 69 69 69 69 69 70 70 70 71 70 70 70 71 71 72 72 72 73 73 73 73 73 73 73 73 73 73 73 71 72 71 71 72 71 71 70 70 71 71 71 71 71 70 70 69 70 70
65 65 65 65 65 65 66 67 67 67 68 68 68 68 68 69 69 69 70 71 71 71 71 71 71 71 71 71 71 71 71 71 72 71 71 70 70 69 68 68 69 68 68 68 69 70 71 70 70 70 70 71 71 72 72 72 72 73 73 73 73 73 73 73 72 72 71 70 70 71 71 70 70 70 70 70 70 71 71 71 71 70 70 69 70
65 65 65 65 65 65 66 67 68 68 68 69 69 69 69 70 70 70 71 71 70 70 70 70 70 71 70 71 71 71 71 71 71 71 70 70 69 68 68 67 68 67 67 67 67 68 69 70 70 70 70 71 71 71 72 72 72 72 73 73 73 73 73 72 72 71 71 71 70 70 70 71 71 70 70 70 69 69 70 70 70 70 70 70 70
65 65 65 65 66 66 66 67 68 68 68 69 69 70 70 70 70 70 71 71 70 70 70 69 69 69 68 69 69 70 70 70 71 70 70 70 69 69 69 71 72 70 70 68 66 66 68 69 69 70 70 71 71 71 72 72 72 73 73 73 73 73 72 71 71 71 71 71 71 71 70 70 73 75 75 75 73 72 69 69 69 70 71 71 69
65 65 65 65 66 66 67 67 67 67 68 68 69 69 69 69 69 70 70 71 71 70 69 68 68 68 68 69 69 70 69 70 70 70 70 70 69 70 71 73 72 73 73 73 71 70 67 67 68 69 70 71 71 72 74 75 75 73 73 73 73 73 72 71 71 70 70 71 71 71 72 75 75 75 75 76 78 78 76 74 72 71 71 70 69
66 66 66 66 66 67 67 67 67 67 67 68 68 69 69 69 69 69 70 70 70 70 69 69 68 69 70 70 70 69 70 69 69 69 69 71 71 70 72 72 72 73 72 72 69 68 68 67 66 67 70 71 71 72 73 70 71 74 74 72 72 73 73 72 71 70 70 70 71 71 71 72 75 79 75 75 76 75 76 77 77 77 76 70 69
66 66 67 67 67 67 67 67 66 67 67 67 68 68 69 69 69 69 70 70 70 70 69 69 69 70 69 69 69 69 69 69 70 70 69 69 71 71 71 71 72 72 71 72 70 68 69 69 69 69 70 70 70 66 64 65 66 67 71 73 72 71 72 72 72 71 70 70 70 70 70 70 71 71 70 72 74 76 76 78 78 78 77 77 74
66 67 67 67 66 66 66 66 67 67 67 68 68 68 68 68 68 69 70 69 69 69 69 68 68 69 69 69 69 69 69 69 69 70 70 70 70 71 70 70 71 72 71 70 70 69 69 70 69 68 68 68 66 64 62 63 64 64 66 71 73 72 72 72 72 71 71 71 70 70 69 69 73 77 75 69 69 71 75 76 77 77 77 77 72
64 65 65 65 65 65 65 66 66 67 68 68 69 68 69 69 69 69 68 68 68 68 69 69 69 70 69 69 69 69 69 69 69 69 70 70 70 71 71 71 71 70 70 71 71 70 70 69 69 68 67 66 65 63 61 61 62 63 65 68 71 73 73 72 72 71 71 71 70 70 69 69 71 69 67 66 67 68 69 71 71 71 72 74 74
63 62 63 63 63 63 64 64 65 66 66 67 67 68 68 68 68 68 68 68 68 68 68 69 68 68 68 69 70 69 69 69 69 69 69 69 69 69 70 70 70 70 70 70 71 70 70 71 69 67 66 64 63 59 59 60 59 61 63 70 71 73 72 72 72 71 71 70 70 70 70 70 69 66 66 65 66 66 68 71 71 71 71 67 64
62 62 63 63 63 63 63 63 64 64 65 66 66 66 66 66 66 67 67 67 67 67 67 67 67 68 68 68 68 68 68 68 68 68 68 68 67 68 69 69 69 69 70 70 71 71 71 70 69 67 66 64 64 58 58 58 58 59 63 69 72 72 71 71 71 71 71 71 71 71 71 70 67 64 63 60 64 67 68 70 69 69 68 65 64
63 63 62 62 62 62 62 62 62 63 63 64 64 64 64 64 63 64 64 64 64 64 64 65 66 67 67 67 68 68 68 67 67 67 67 67 67 67 68 69 67 67 68 68 69 70 70 70 70 68 65 64 63 59 56 56 56 57 62 68 72 73 72 71 71 72 72 72 72 72 71 68 64 63 61 58 60 70 68 67 66 66 67 67 65
62 62 62 61 61 62 62 61 61 61 61 62 63 63 63 62 62 62 62 61 62 62 63 64 64 65 65 66 66 67 67 67 67 67 67 68 68 68 68 69 67 67 67 68 70 70 71 70 71 68 66 63 62 61 55 54 55 56 61 65 70 71 71 71 72 72 71 71 73 75 72 65 61 61 58 57 59 68 65 65 64 64 64 66 65
62 61 61 61 61 61 61 61 60 60 60 61 61 61 61 60 60 60 60 60 61 61 62 62 62 63 64 64 65 65 65 66 66 66 67 67 68 68 68 68 68 68 68 68 69 69 69 69 69 67 67 62 61 61 55 54 54 55 61 64 68 70 70 70 71 70 69 68 70 73 71 65 61 61 55 56 58 64 62 64 64 63 64 64 64
61 61 61 60 61 60 59 59 59 59 59 59 59 60 60 59 59 59 59 59 59 59 60 61 61 62 63 64 64 65 65 65 65 66 68 67 67 66 66 67 67 67 67 67 68 68 64 62 63 62 61 61 61 60 58 53 53 54 56 63 66 70 69 68 70 70 66 66 64 62 62 58 57 55 53 53 53 55 61 63 64 63 58 57 63
60 59 60 58 58 59 58 58 58 58 58 59 59 59 59 59 58 57 57 57 58 58 59 59 60 59 59 60 61 63 64 64 65 66 66 66 66 66 65 66 66 66 66 65 64 63 63 62 62 63 63 63 61 60 58 53 52 52 53 60 63 63 65 68 71 71 68 65 64 62 62 58 54 54 53 52 51 52 59 62 63 59 62 66 64
60 59 57 56 56 55 55 55 56 56 57 56 56 56 56 55 56 56 56 57 57 58 58 59 58 58 56 57 59 61 63 63 64 63 62 62 63 64 65 66 66 65 64 63 63 63 62 62 63 63 64 64 63 61 59 55 52 51 52 54 60 61 61 64 67 69 68 65 63 63 62 59 54 53 51 49 49 51 54 61 60 56 56 58 60
56 55 56 53 52 52 53 53 54 55 56 56 56 56 56 55 55 56 57 57 56 57 59 60 59 56 57 56 57 56 58 60 61 62 61 61 62 62 64 66 65 63 62 61 61 60 60 60 61 62 62 62 62 61 58 57 55 51 51 52 53 57 56 61 59 59 59 60 61 61 61 57 52 48 47 47 48 50 54 56 54 54 55 56 59
53 53 55 57 56 56 56 56 57 57 56 56 56 57 57 56 55 56 59 59 57 58 60 60 60 58 56 57 56 56 54 55 57 57 59 59 61 62 63 64 64 63 61 60 60 61 60 60 59 60 60 60 59 59 60 57 57 53 51 51 52 52 54 57 58 58 58 57 57 56 56 51 48 45 46 47 49 52 56 51 52 53 55 58 60
53 54 56 56 55 55 56 56 56 57 57 57 57 56 57 56 57 60 59 59 60 61 59 57 57 58 59 57 56 57 57 58 57 58 59 60 59 59 59 60 63 63 61 60 60 59 59 59 59 58 58 56 58 58 56 58 57 56 54 52 52 54 53 53 55 54 55 56 54 50 48 48 49 48 48 50 52 53 51 50 50 52 59 60 60
53 54 55 55 55 55 55 55 56 56 57 57 56 56 56 55 58 60 57 58 59 59 59 58 58 57 55 57 57 55 54 54 57 57 58 58 58 59 58 58 60 61 61 62 61 60 59 59 59 59 58 57 57 56 55 55 55 55 53 54 52 54 55 54 53 52 53 53 52 51 52 51 53 55 60 61 62 62 61 60 58 59 60 60 60
53 55 55 54 55 55 55 55 55 55 55 56 56 56 57 58 58 58 58 59 60 60 60 55 54 56 56 56 55 54 52 53 52 52 51 53 53 53 55 58 58 58 60 62 64 61 60 60 59 57 57 57 55 54 54 53 51 51 51 50 50 49 51 52 52 50 51 50 55 57 56 53 52 54 56 57 58 61 62 61 61 62 61 61 61
54 54 54 54 54 54 55 55 54 54 56 56 56 56 56 55 56 56 57 59 60 57 55 53 53 56 58 58 60 60 55 51 52 52 51 49 49 51 52 53 53 54 57 59 62 62 61 60 58 57 56 56 56 55 53 50 51 49 48 47 48 49 47 48 48 48 48 52 55 57 56 60 61 59 59 59 60 61 61 61 61 62 64 65 66
53 53 54 53 54 54 54 55 54 53 54 55 55 55 55 55 56 56 57 59 60 60 58 52 54 55 56 57 53 54 52 51 50 51 51 51 52 53 52 52 53 52 53 54 57 58 59 58 57 57 56 55 57 54 53 49 52 46 48 47 48 47 46 47 51 49 52 55 54 56 58 59 58 58 58 58 58 58 58 58 58 58 58 58 58
53 54 54 55 55 54 54 54 52 53 54 55 54 54 55 56 56 56 57 59 58 55 53 53 53 54 55 55 52 49 50 52 50 49 49 50 51 47 48 51 50 52 48 44 46 54 55 55 53 53 54 55 55 53 47 43 42 41 41 42 43 42 41 45 48 47 51 52 54 56 57 59 59 59 59 59 58 57 57 56 57 58 58 57 57
55 55 54 54 54 55 54 53 53 55 55 55 53 53 53 54 54 55 56 56 56 55 53 53 56 54 55 55 54 51 50 49 48 48 48 51 47 49 43 43 48 49 44 40 41 42 45 49 56 51 52 48 47 44 42 42 41 40 40 40 39 39 39 40 42 49 51 53 56 57 57 58 59 59 59 59 60 59 58 57 56 56 56 56 56